Tracking 20475 objects as of 27-Feb-2020
HD Live streaming from Space Station
objects crossing your sky now

RADUGA 1-7

Track RADUGA 1-7 now!
RADUGA 1-7 is classified as:


NORAD ID: 28194
Int'l Code: 2004-010A
Perigee: 35,806.6 km
Apogee: 35,835.7 km
Inclination: 11.0 °
Period: 1,437.5 minutes
Semi major axis: 42192 km
RCS: 12.5893 m2 (large)
Launch date: March 27, 2004
Source: Commonwealth of Independent States (former USSR) (CIS)
Launch site: TYURATAM MISSILE AND SPACE COMPLEX (TTMTR)

Military communication.
aabbcc
Your satellite tracking list
Your tracking list is empty




NASA's NSSDC Master Catalog

Two Line Element Set (TLE):
1 28194U 04010A   20057.37573640 -.00000263 +00000-0 +00000-0 0  9990
2 28194 010.9815 037.8515 0003440 289.2866 058.5387 01.00174149058311
Source of the keplerian elements: AFSPC